Date String (YYYY-MM-DD hh:mm:ss) UTC,Instrument flags,Ambient pressure (hPa),Sample flow (lpm),Bypass flow (lpm),Sample temperature (°C),Ambient temperature (°C),ASC tube jacket temperature (°C),LED temperature (°C),Box temperature (°C),Sample RH (%),Span deviation,Mass concentration (μg/m³),Mass concentration (μg/m³),Mass concentration (μg/m³)
DateTimeUTC,F1_M11,P_M11,Q1_M11,Q2_M11,T1_M11,T2_M11,T3_M11,T4_M11,T5_M11,U1_M11,ZSPAN_M11,X0_M11,X2_M11,X1_M11
2022-12-28 03:00:00,,0808.9,5.01,0.00,25.2,23.7,00.0,34.2,27.0,16.3,0000.0,0002.84,0000.50,0000.43
2022-12-28 03:01:00,,0808.9,4.99,0.00,25.2,23.7,00.0,34.1,27.1,16.3,0000.0,0003.11,0000.55,0000.48
2022-12-28 03:02:00,,0808.9,5.00,0.00,25.2,23.8,00.0,34.1,27.0,16.2,0000.0,0003.22,0000.61,0000.52
2022-12-28 03:03:00,,0808.9,4.99,0.00,25.2,23.9,00.0,34.1,27.1,16.2,0000.0,0003.85,0000.71,0000.56
2022-12-28 03:04:00,,0808.9,4.99,0.00,25.2,23.9,00.0,34.1,27.1,16.1,0000.0,0004.79,0000.76,0000.61
2022-12-28 03:05:00,,0808.9,5.00,0.00,25.3,24.0,00.0,34.1,27.1,16.1,0000.0,0004.82,0000.79,0000.64
2022-12-28 03:06:00,,0808.7,5.00,0.00,25.3,24.0,00.0,34.1,27.2,16.1,0000.0,0005.00,0000.83,0000.67
2022-12-28 03:07:00,,0808.6,5.00,0.00,25.3,24.1,00.0,34.2,27.2,16.1,0000.0,0007.12,0000.88,0000.70
2022-12-28 03:08:00,,0808.7,5.00,0.00,25.3,24.1,00.0,34.2,27.2,16.2,0000.0,0006.84,0000.90,0000.70
2022-12-28 03:09:00,,0808.6,5.00,0.00,25.3,24.1,00.0,34.2,27.2,16.1,0000.0,0006.50,0000.91,0000.69
2022-12-28 03:10:00,,0808.6,5.00,0.00,25.3,24.2,00.0,34.2,27.2,16.0,0000.0,0006.58,0000.93,0000.67
2022-12-28 03:11:00,,0808.6,5.00,0.00,25.3,24.2,00.0,34.2,27.2,16.1,0000.0,0005.86,0000.88,0000.62
2022-12-28 03:12:00,,0808.5,5.00,0.00,25.3,24.2,00.0,34.2,27.3,16.2,0000.0,0005.57,0000.86,0000.59
2022-12-28 03:13:00,,0808.4,5.00,0.00,25.4,24.2,00.0,34.2,27.3,15.8,0000.0,0005.44,0000.80,0000.55
2022-12-28 03:14:00,,0808.3,5.00,0.00,25.4,24.2,00.0,34.2,27.3,15.4,0000.0,0004.97,0000.72,0000.49
2022-12-28 03:15:00,,0808.3,5.00,0.00,25.4,24.2,00.0,34.2,27.3,15.6,0000.0,0003.90,0000.66,0000.44
2022-12-28 03:16:00,,0808.5,5.01,0.00,25.4,24.2,00.0,34.2,27.3,15.6,0000.0,0003.90,0000.63,0000.40
2022-12-28 03:17:00,,0808.5,5.01,0.00,25.4,24.2,00.0,34.2,27.3,15.7,0000.0,0004.30,0000.60,0000.36
2022-12-28 03:18:00,,0808.5,5.00,0.00,25.4,24.2,00.0,34.2,27.3,15.6,0000.0,0002.37,0000.55,0000.33
2022-12-28 03:19:00,,0808.5,4.99,0.00,25.4,24.2,00.0,34.2,27.3,15.6,0000.0,0001.67,0000.53,0000.31
2022-12-28 03:20:00,,0808.4,4.98,0.00,25.4,24.2,00.0,34.3,27.3,15.6,0000.0,0001.55,0000.49,0000.28
2022-12-28 03:21:00,,0808.4,5.01,0.00,25.4,24.2,00.0,34.3,27.2,15.8,0000.0,0001.48,0000.42,0000.25
2022-12-28 03:22:00,,0808.4,5.01,0.00,25.4,24.2,00.0,34.3,27.3,15.8,0000.0,0001.81,0000.41,0000.23
2022-12-28 03:23:00,,0808.4,5.01,0.00,25.4,24.1,00.0,34.3,27.3,15.8,0000.0,0002.23,0000.37,0000.21
2022-12-28 03:24:00,,0808.4,5.00,0.00,25.4,24.0,00.0,34.3,27.2,15.9,0000.0,0002.23,0000.36,0000.20
2022-12-28 03:25:00,,0808.5,5.00,0.00,25.4,23.8,00.0,34.3,27.1,16.1,0000.0,0002.32,0000.39,0000.22
2022-12-28 03:26:00,,0808.5,4.99,0.00,25.3,23.7,00.0,34.3,27.1,15.7,0000.0,0002.46,0000.46,0000.24
2022-12-28 03:27:00,,0808.3,5.00,0.00,25.3,23.6,00.0,34.3,27.0,15.9,0000.0,0002.45,0000.48,0000.27
2022-12-28 03:28:00,,0808.3,5.01,0.00,25.3,23.5,00.0,34.3,27.0,16.1,0000.0,0002.12,0000.52,0000.31
2022-12-28 03:29:00,,0808.2,5.01,0.00,25.2,23.4,00.0,34.3,26.9,15.9,0000.0,0002.01,0000.59,0000.35
2022-12-28 03:30:00,,0808.3,5.00,0.00,25.2,23.3,00.0,34.2,26.8,16.2,0000.0,0002.07,0000.63,0000.38
2022-12-28 03:31:00,,0808.2,5.00,0.00,25.1,23.2,00.0,34.2,26.8,16.3,0000.0,0002.13,0000.67,0000.42
2022-12-28 03:32:00,,0808.1,4.99,0.00,25.1,23.1,00.0,34.2,26.7,16.1,0000.0,0002.05,0000.69,0000.44
2022-12-28 03:33:00,,0808.1,5.00,0.00,25.1,23.1,00.0,34.2,26.7,16.0,0000.0,0001.84,0000.70,0000.47
2022-12-28 03:34:00,,0808.1,5.00,0.00,25.0,23.1,00.0,34.1,26.7,16.0,0000.0,0001.19,0000.72,0000.49
2022-12-28 03:35:00,,0808.0,5.00,0.00,25.0,23.1,00.0,34.1,26.6,16.0,0000.0,0001.26,0000.75,0000.50
2022-12-28 03:36:00,,0808.1,5.01,0.00,25.0,23.1,00.0,34.1,26.6,16.0,0000.0,0001.29,0000.75,0000.50
2022-12-28 03:37:00,,0808.1,5.00,0.00,25.0,23.0,00.0,34.1,26.6,16.0,0000.0,0001.21,0000.71,0000.49
2022-12-28 03:38:00,,0808.1,5.00,0.00,24.9,23.0,00.0,34.0,26.6,16.0,0000.0,0001.25,0000.72,0000.49
2022-12-28 03:39:00,,0808.1,4.99,0.00,24.9,23.0,00.0,34.0,26.6,16.1,0000.0,0001.65,0000.70,0000.47
2022-12-28 03:40:00,,0808.1,5.00,0.00,24.9,23.1,00.0,34.0,26.6,16.1,0000.0,0001.78,0000.70,0000.46
2022-12-28 03:41:00,,0808.0,5.00,0.00,24.9,23.2,00.0,34.0,26.6,16.1,0000.0,0001.80,0000.69,0000.46
2022-12-28 03:42:00,,0808.0,5.00,0.00,24.9,23.2,00.0,34.0,26.7,16.2,0000.0,0001.78,0000.67,0000.45
2022-12-28 03:43:00,,0808.1,5.00,0.00,24.9,23.3,00.0,33.9,26.7,16.2,0000.0,0002.33,0000.66,0000.45
2022-12-28 03:44:00,,0808.1,5.00,0.00,24.9,23.4,00.0,33.9,26.7,16.2,0000.0,0003.32,0000.69,0000.44
2022-12-28 03:45:00,,0808.1,5.00,0.00,24.9,23.4,00.0,33.9,26.7,16.2,0000.0,0003.47,0000.73,0000.44
2022-12-28 03:46:00,,0808.1,5.00,0.00,24.9,23.4,00.0,33.9,26.7,16.1,0000.0,0003.59,0000.77,0000.46
2022-12-28 03:47:00,,0808.1,4.99,0.00,24.9,23.4,00.0,33.9,26.7,16.0,0000.0,0003.52,0000.77,0000.48
2022-12-28 03:48:00,,0808.0,5.00,0.00,24.9,23.3,00.0,33.9,26.6,16.0,0000.0,0003.51,0000.78,0000.51
2022-12-28 03:49:00,,0808.0,5.00,0.00,24.9,23.3,00.0,33.9,26.6,16.2,0000.0,0003.92,0000.81,0000.52
2022-12-28 03:50:00,,0808.0,5.00,0.00,24.9,23.2,00.0,33.9,26.6,15.9,0000.0,0004.24,0000.80,0000.51
2022-12-28 03:51:00,,0808.1,5.00,0.00,24.9,23.2,00.0,33.9,26.6,16.0,0000.0,0004.18,0000.78,0000.49
2022-12-28 03:52:00,,0808.1,4.99,0.00,24.9,23.2,00.0,33.9,26.6,16.2,0000.0,0004.17,0000.78,0000.48
2022-12-28 03:53:00,,0808.0,5.00,0.00,24.9,23.3,00.0,33.8,26.6,16.2,0000.0,0004.12,0000.77,0000.48
2022-12-28 03:54:00,,0808.0,5.01,0.00,24.9,23.4,00.0,33.8,26.7,16.1,0000.0,0003.54,0000.77,0000.48
2022-12-28 03:55:00,,0808.0,5.00,0.00,24.9,23.4,00.0,33.8,26.7,16.1,0000.0,0002.71,0000.79,0000.49
2022-12-28 03:56:00,,0808.0,5.00,0.00,24.9,23.5,00.0,33.8,26.7,16.2,0000.0,0002.60,0000.77,0000.49
2022-12-28 03:57:00,,0808.0,5.00,0.00,24.9,23.6,00.0,33.8,26.8,16.1,0000.0,0002.68,0000.77,0000.48
2022-12-28 03:58:00,,0808.0,5.00,0.00,24.9,23.6,00.0,33.8,26.8,16.0,0000.0,0002.81,0000.80,0000.46
2022-12-28 03:59:00,,0807.8,4.99,0.00,24.9,23.6,00.0,33.8,26.8,15.9,0000.0,0002.93,0000.81,0000.45
